Weather History for Siren, WI

Change the Weather History Date:

Saturday, January 19, 2013

  Actual Average Record
Temperature  
Mean Temperature 18 °F -  
Max Temperature 33 °F - - ()
Min Temperature 3 °F - - ()
Degree Days  
Heating Degree Days 47    
Moisture  
Dew Point 13 °F    
Average Humidity 77    
Maximum Humidity 100    
Minimum Humidity 52    
Precipitation  
Precipitation 0.00 in - - ()
Sea Level Pressure  
Sea Level Pressure 29.80 in    
Wind  
Wind Speed 8 mph (NW)    
Max Wind Speed 30 mph    
Max Gust Speed 39 mph    
Visibility 9 miles    
Events Snow    
T = Trace of Precipitation, MM = Missing Value Source: NWS Daily Summary

Daily Weather History Graph

Daily Weather History Graph

Search for Another Location

Airport:

Trip Planner

Search our weather history database for the weather conditions in past years. The results will help you decide how hot, cold, wet, or windy it might be!

Date:

Astronomy

Jan. 19, 2013 Rise Set
Actual Time 7:43 AM CST 4:57 PM CST
Civil Twilight 7:10 AM CST 5:30 PM CST
Nautical Twilight 6:34 AM CST 6:06 PM CST
Astronomical Twilight 5:58 AM CST 6:42 PM CST
Moon 11:27 AM CST (1/19) 1:13 AM CST (1/19)
Length of Visible Light 10h 19m
Length of Day
9h 13m
First Quarter, 57% of the Moon is Illuminated
Jan 19
First Quarter
Jan 26
Full
Feb 3
Last Quarter
Feb 10
New
Feb 17
First Quarter

Hourly Weather History & Observations

Time (CST) Temp. Windchill Dew Point Humidity Pressure Visibility Wind Dir Wind Speed Gust Speed Precip Events Conditions
12:15 AM 21.2 °F - 19.4 °F 93% 29.77 in 10.0 mi Calm Calm - N/A   Mostly Cloudy
12:35 AM 19.4 °F - 19.4 °F 100% 29.77 in 7.0 mi Calm Calm - N/A   Scattered Clouds
12:55 AM 19.4 °F - 19.4 °F 100% 29.77 in 7.0 mi Calm Calm - N/A   Scattered Clouds
1:15 AM 21.2 °F - 19.4 °F 93% 29.77 in 7.0 mi Calm Calm - N/A   Scattered Clouds
1:35 AM 21.2 °F - 19.4 °F 93% 29.76 in 10.0 mi Calm Calm - N/A   Clear
1:55 AM 21.2 °F - 19.4 °F 93% 29.76 in 10.0 mi Calm Calm - N/A   Clear
2:15 AM 21.2 °F - 19.4 °F 93% 29.76 in 10.0 mi Calm Calm - N/A   Clear
2:35 AM 21.2 °F 16.4 °F 19.4 °F 93% 29.74 in 10.0 mi SSE 3.5 mph - N/A   Clear
2:55 AM 21.2 °F 14.9 °F 19.4 °F 93% 29.73 in 10.0 mi South 4.6 mph - N/A   Clear
3:15 AM 23.0 °F 15.8 °F 21.2 °F 93% 29.71 in 10.0 mi South 5.8 mph - N/A   Clear
3:35 AM 23.0 °F 18.4 °F 21.2 °F 93% 29.70 in 10.0 mi SE 3.5 mph - N/A   Scattered Clouds
3:55 AM 23.0 °F 15.8 °F 21.2 °F 93% 29.68 in 7.0 mi South 5.8 mph - N/A   Mostly Cloudy
4:15 AM 23.0 °F - 21.2 °F 93% 29.68 in 7.0 mi Calm Calm - N/A   Clear
4:35 AM 23.0 °F - 21.2 °F 93% 29.68 in 7.0 mi Calm Calm - N/A   Clear
4:55 AM 21.2 °F - 21.2 °F 100% 29.68 in 7.0 mi Calm Calm - N/A   Clear
5:15 AM 21.2 °F - 21.2 °F 100% 29.69 in 7.0 mi Calm Calm - N/A   Clear
5:35 AM 21.2 °F 16.4 °F 19.4 °F 93% 29.69 in 5.0 mi West 3.5 mph - N/A   Clear
5:55 AM 21.2 °F 16.4 °F 21.2 °F 100% 29.69 in 5.0 mi West 3.5 mph - N/A   Clear
7:15 AM 21.2 °F - 21.2 °F 100% 29.68 in 5.0 mi Calm Calm - N/A   Clear
8:35 AM 21.2 °F 14.9 °F 21.2 °F 100% 29.65 in 3.0 mi South 4.6 mph - N/A   Clear
9:55 AM 32.0 °F 22.5 °F 28.4 °F 87% 29.66 in 10.0 mi West 12.7 mph 18.4 mph N/A   Scattered Clouds
10:15 AM 32.0 °F 22.5 °F 28.4 °F 87% 29.66 in 10.0 mi West 12.7 mph 17.3 mph N/A   Mostly Cloudy
10:35 AM 32.0 °F 22.5 °F 28.4 °F 87% 29.67 in 10.0 mi WNW 12.7 mph 19.6 mph N/A   Overcast
11:15 AM 32.0 °F 24.2 °F 28.4 °F 87% 29.66 in 10.0 mi WNW 9.2 mph 17.3 mph N/A   Overcast
11:35 AM 32.0 °F 23.6 °F 28.4 °F 87% 29.66 in 10.0 mi WNW 10.4 mph - N/A   Overcast
11:55 AM 32.0 °F 22.1 °F 28.4 °F 87% 29.66 in 10.0 mi WNW 13.8 mph 19.6 mph N/A   Overcast
12:15 PM 32.0 °F 21.2 °F 28.4 °F 87% 29.65 in 10.0 mi NW 16.1 mph 25.3 mph N/A   Overcast
12:35 PM 32.0 °F 22.5 °F 28.4 °F 87% 29.65 in 10.0 mi NW 12.7 mph 21.9 mph N/A   Overcast
12:55 PM 33.8 °F 23.5 °F 26.6 °F 75% 29.64 in 10.0 mi WNW 16.1 mph 26.5 mph N/A   Overcast
1:15 PM 33.8 °F 23.5 °F 26.6 °F 75% 29.63 in 10.0 mi NW 16.1 mph 24.2 mph N/A   Overcast
1:35 PM 33.8 °F 22.5 °F 26.6 °F 75% 29.63 in 10.0 mi WNW 19.6 mph 25.3 mph N/A   Overcast
1:55 PM 33.8 °F 23.5 °F 26.6 °F 75% 29.63 in 10.0 mi NW 16.1 mph 23.0 mph N/A   Overcast
2:15 PM 33.8 °F 21.6 °F 23.0 °F 65% 29.62 in 10.0 mi NW 23.0 mph 31.1 mph N/A   Overcast
2:35 PM 33.8 °F 22.5 °F 23.0 °F 65% 29.62 in 10.0 mi WNW 19.6 mph 31.1 mph N/A   Overcast
2:55 PM 32.0 °F 20.1 °F 17.6 °F 55% 29.63 in 10.0 mi NW 19.6 mph 34.5 mph N/A   Mostly Cloudy
3:15 PM 30.2 °F 17.1 °F 15.8 °F 55% 29.65 in 10.0 mi NW 21.9 mph 39.1 mph N/A   Mostly Cloudy
3:35 PM 26.6 °F 10.3 °F 12.2 °F 55% 29.69 in 7.0 mi NW 29.9 mph 36.8 mph N/A   Scattered Clouds
3:55 PM 21.2 °F 4.5 °F 10.4 °F 63% 29.72 in 5.0 mi NW 24.2 mph 38.0 mph N/A   Haze
4:15 PM 19.4 °F 1.4 °F 8.6 °F 63% 29.75 in 7.0 mi NW 26.5 mph 38.0 mph N/A   Overcast
4:35 PM 17.6 °F 0.5 °F 10.4 °F 73% 29.78 in 1.2 mi NW 21.9 mph 28.8 mph N/A Snow Light Snow
4:55 PM 15.8 °F -0.2 °F 8.6 °F 73% 29.81 in 3.0 mi NW 17.3 mph 31.1 mph N/A Snow Light Snow
5:15 PM 12.2 °F -9.3 °F 3.2 °F 67% 29.84 in 3.0 mi NNW 29.9 mph 38.0 mph N/A   Haze
5:35 PM 12.2 °F -6.3 °F -2.2 °F 53% 29.87 in 10.0 mi NNW 20.7 mph 38.0 mph N/A   Overcast
5:55 PM 10.4 °F -9.1 °F -2.2 °F 57% 29.89 in 10.0 mi NNW 21.9 mph 33.4 mph N/A   Mostly Cloudy
6:15 PM 10.4 °F -6.6 °F -4.0 °F 52% 29.91 in 10.0 mi NNW 16.1 mph 34.5 mph N/A   Scattered Clouds
6:35 PM 8.6 °F -11.4 °F -4.0 °F 57% 29.93 in 10.0 mi NNW 21.9 mph 38.0 mph N/A   Mostly Cloudy
6:55 PM 6.8 °F -14.7 °F -5.8 °F 56% 29.95 in 10.0 mi NNW 24.2 mph 35.7 mph N/A   Overcast
7:15 PM 6.8 °F -12.4 °F -5.8 °F 56% 29.97 in 10.0 mi NNW 18.4 mph 27.6 mph N/A   Overcast
7:35 PM 6.8 °F -13.8 °F -5.8 °F 56% 29.98 in 10.0 mi NNW 21.9 mph 27.6 mph N/A   Overcast
7:55 PM 5.0 °F -15.2 °F -5.8 °F 61% 30.00 in 10.0 mi NNW 19.6 mph 32.2 mph N/A   Overcast
8:15 PM 5.0 °F -14.7 °F -5.8 °F 61% 30.02 in 10.0 mi NNW 18.4 mph 27.6 mph N/A   Overcast
8:35 PM 5.0 °F -14.2 °F -4.0 °F 66% 30.03 in 10.0 mi NNW 17.3 mph 25.3 mph N/A   Overcast
8:55 PM 5.0 °F -13.0 °F -4.0 °F 66% 30.05 in 10.0 mi NNW 15.0 mph 20.7 mph N/A   Overcast
9:15 PM 5.0 °F -14.2 °F -4.0 °F 66% 30.06 in 10.0 mi NNW 17.3 mph 23.0 mph N/A   Overcast
9:35 PM 5.0 °F -13.6 °F -4.0 °F 66% 30.08 in 10.0 mi NNW 16.1 mph 23.0 mph N/A   Mostly Cloudy
9:55 PM 5.0 °F -13.6 °F -4.0 °F 66% 30.09 in 10.0 mi NNW 16.1 mph 19.6 mph N/A   Mostly Cloudy
10:15 PM 5.0 °F -13.0 °F -4.0 °F 66% 30.10 in 10.0 mi North 15.0 mph 18.4 mph N/A   Mostly Cloudy
10:35 PM 5.0 °F -12.3 °F -4.0 °F 66% 30.11 in 10.0 mi North 13.8 mph 20.7 mph N/A   Scattered Clouds
10:55 PM 3.2 °F -14.6 °F -5.8 °F 66% 30.12 in 10.0 mi NNW 13.8 mph 17.3 mph N/A   Clear
11:15 PM 3.2 °F -13.9 °F -5.8 °F 66% 30.13 in 10.0 mi NNW 12.7 mph 17.3 mph N/A   Clear
11:35 PM 3.2 °F -14.6 °F -5.8 °F 66% 30.13 in 10.0 mi North 13.8 mph 18.4 mph N/A   Clear
11:55 PM 3.2 °F -11.3 °F -5.8 °F 66% 30.14 in 10.0 mi NNW 9.2 mph - N/A   Clear